GENESIS 2

Last updated on Thu Nov 21 2024 00:02:13 GMT+0000 (Coordinated Universal Time)

1 31789U 07028A 24325.59992073 .00044644 00000+0 82729-3 0 9997 2 31789 64.4863 40.6580 0010366 280.9162 79.0809 15.48678011961536
UTC large
Height (km)
Speed (km/s)
/
Latitude / Longitude
Inclination (degrees)
Orbital Period (minutes)
Azimuth
Elevation
Range (km)
Doppler Factor

Next 0 passes for location: London (51.5072 / 0.1276)

Sorry there are no passes over London.